Über Flock 4q-26
Group: 3 satellites
Beschreibung wird geladen...
Live-Position
3D-Globus wird geladen...
Nächste Überflüge
Höhenverlauf
Altitude vs Time
uPlot chart will show altitude changes over time
Zweizeiliger Elementsatz
1 58284U 23174AE 26061.24441450 .00043053 00000-0 75924-3 0 9998
2 58284 97.3920 150.4045 0007133 174.1705 185.9630 15.50257762129225
Epoch: 2. März 2026 •
Age: 31 hours
Aktueller Status
Höhe 414.1 km
Geschwindigkeit 7.67 km/s
Subsatellitenpunkt -0.09°S,
59.01°E
Startdatum 11. Nov. 2023
Alter 2.3 years
Typ earth observation
Technische Details
Klassifizierung Payload
Masse 5.70 kg
Trockenmasse 5.70 kg
Gesamtmasse 5.70 kg
Länge 0.30 m
Durchmesser 0.10 m
Spannweite 0.30 m
Form Box+2 pan
Hersteller PLAN
Bus-Typ Cubesat 3U
Phasenstatus In Orbit
Besitzer/Staat PLAN/US
Große Konstellationen
Loading constellations...